Location: Las Callecitas
(9.8750°N, 67.4611°W)
Time: 02:38:13
(UTC+00:00)

Cosmos 1943 - Pass Details

Date: 14 April 2024
Orbit: 832 x 849 km, 71.0° (Epoch: 19 May)

Event Time Altitude Azimuth Distance (km) Brightness Sun altitude
Exits shadow 08:35:20 27° 178° (S) 1,557 4.4 -25.9°
Maximum altitude 08:38:23 64° 105° (ESE) 933 3.5 -25.2°
Drops below altitude 10° 08:43:59 10° 24° (NNE) 2,464 6.1 -23.9°
Sets 08:46:27 0° 22° (NNE) 3,400 6.9 -23.3°
